TIME,DELAY(SENSOR),PRES,T(CTD),SAL,OXYGEN,RAWTEMP,T(OPTODE),TCPHASE,FLUOR,BETA(BETA700),BETA(BETA412),BETA(BETA440),CDOM,C(CSC),ED(ED411.90),ED(ED443.80),ED(ED489.40),ED(ED554.70),LU(LU412.20),LU(LU443.80),LU(LU489.40),LU(LU555.00),COMP,TILTX,TILTX(TILTY),CHECK
1349536369,5806,496.1199951171875000,16.8782005310058600,36.3474006652832000,223.9698028564453000,192.4326019287109400,16.8764495849609380,31.7889499664306640,51,101,84,62,51,13081,2146953709,2147514294,2147266550,2147471634,2147085933,2146953024,2147661275,2147120539,3498,-2,8,7155
1349536496,5802,485.2300109863281000,17.0118007659912100,36.3721008300781250,226.1674041748047000,188.2328033447265600,17.0030708312988280,31.6183700561523440,50,100,85,63,51,13078,2146957001,2147514761,2147267099,2147469494,2147085138,2146956553,2147656137,2147113609,3255,-2,8,46623
1349536626,5805,474.2000122070312500,17.1606998443603500,36.3988990783691400,226.7581024169922000,183.2142944335937500,17.1543903350830080,31.5195503234863280,50,101,85,62,51,13077,2146954459,2147512740,2147268982,2147470601,2147088256,2146957293,2147654528,2147123739,3112,-2,8,29282
1349536753,5807,463.5599975585937500,17.2541007995605470,36.4177017211914060,228.4884948730468800,180.0370941162109400,17.2502098083496100,31.3889808654785160,51,101,86,62,51,13078,2146956224,2147515510,2147265810,2147465499,2147087433,2146954916,2147660726,2147127926,2686,-2,8,7193
1349536882,5806,452.5199890136719000,17.3880996704101560,36.4435997009277340,230.4647064208984400,175.6558990478515600,17.3823699951171880,31.2308998107910160,51,101,85,62,50,13075,2146955684,2147515894,2147265764,2147469595,2147084544,2146959579,2147659254,2147122230,1725,-2,8,59175
1349537009,5807,441.3599853515625000,17.4643993377685550,36.4560012817382800,230.6324005126953000,172.9241027832031200,17.4647808074951170,31.1854496002197270,50,101,85,62,51,13080,2146952713,2147512045,2147264000,2147465216,2147084672,2146961161,2147654592,2147129444,1244,-1,8,7650
1349537136,5807,429.7699890136719000,17.5414009094238280,36.4706001281738300,231.0518035888672000,170.4716949462890600,17.5387706756591800,31.1312408447265620,51,101,84,63,50,13076,2146954633,2147515373,2147264137,2147461632,2147087789,2146956562,2147657737,2147117421,825,-1,8,27762
1349537254,5804,418.7500000000000000,17.6126003265380860,36.4845008850097660,231.6947937011718800,168.1670074462890600,17.6083202362060550,31.0685596466064450,50,103,84,63,50,13080,2146954258,2147516013,2147266166,2147463789,2147085046,2146959670,2147652123,2147125266,3311,-2,8,46484
1349537369,5804,408.1600036621094000,17.6805000305175780,36.4962997436523440,232.4803924560547000,165.8596954345703000,17.6779499053955080,30.9987201690673830,51,100,85,63,50,13077,2146959140,2147512457,2147265170,2147465718,2147088027,2146953380,2147655296,2147125979,2733,-1,8,61685
1349537484,5806,397.5499877929687500,17.7451000213623050,36.5060997009277340,233.0122985839843800,163.7165985107422000,17.7426395416259770,30.9437294006347660,50,102,85,63,50,13078,2146954432,2147514934,2147266514,2147466340,2147082706,2146954633,2147654939,2147126582,2313,-2,8,53214
1349537614,5804,385.8599853515625000,17.8390998840332030,36.5233001708984400,234.0854949951172000,160.5885009765625000,17.8370704650878900,30.8496494293212900,50,100,85,62,51,13078,2146954322,2147515538,2147262198,2147465636,2147080182,2146956790,2147649554,2147129179,1410,-2,8,43787
1349537729,5807,375.7900085449219000,17.9041996002197270,36.5340995788574200,235.1107025146484400,158.4806976318359400,17.9007091522216800,30.7718601226806640,51,101,86,62,51,13072,2146954788,2147515968,2147263926,2147463332,2147079012,2146963035,2147651300,2147121792,356,-2,8,35475
1349537858,5805,364.6600036621094000,17.9675006866455080,36.5455017089843750,235.3827056884765600,156.3894958496093800,17.9638500213623050,30.7305793762207030,50,101,85,63,51,13077,2146957165,2147513581,2147266048,2147464822,2147077897,2146959076,2147652022,2147123419,2900,-2,8,59289
1349537985,5803,353.7300109863281000,18.0268993377685550,36.5545005798339840,235.5767974853515600,154.4662017822265600,18.0219306945800780,30.6957206726074220,50,100,85,63,50,13077,2146955858,2147512347,2147265910,2147461860,2147086061,2146959853,2147654070,2147127332,2388,-1,9,50219
1349538124,5809,342.0299987792969000,18.0750999450683600,36.5601005554199200,235.2700042724609400,152.8325958251953000,18.0712795257568360,30.6884899139404300,50,102,86,63,50,13075,2146950518,2147516269,2147263122,2147465152,2147080969,2146962176,2147651922,2147122368,1791,-2,9,27742
1349538254,5806,331.2300109863281000,18.1499004364013670,36.5710983276367200,234.8395996093750000,150.3921966552734400,18.1449909210205080,30.6766395568847660,51,100,86,63,51,13073,2146950729,2147516041,2147263561,2147459474,2147082880,2146961929,2147651200,2147125842,937,-1,8,30398
1349538393,5807,320.0599975585937500,18.2031002044677730,36.5764999389648440,234.4588928222656200,148.5928039550781200,18.1993503570556640,30.6708297729492200,50,101,84,62,51,13070,2146954166,2147515154,2147264164,2147459794,2147083145,2146962038,2147651638,2147125010,418,-2,8,17259
1349538522,5805,309.8800048828125000,18.2672996520996100,36.5835990905761700,233.5630950927734400,146.5666961669922000,18.2605705261230470,30.6871204376220700,50,100,85,61,50,13076,2146956086,2147516388,2147264210,2147462793,2147080649,2146959168,2147658642,2147127570,3047,-2,8,60714
1349538673,5805,298.1499938964844000,18.3360996246337900,36.5886993408203100,232.7068939208984400,144.1985015869140600,18.3321399688720700,30.6972694396972660,51,103,85,63,51,13074,2146956589,2147514285,2147262756,2147461266,2147079396,2146963995,2147661138,2147124461,2276,-2,9,32494
1349538821,5807,286.2099914550781000,18.4071006774902340,36.5918998718261700,230.9913024902343800,141.9255065917968800,18.4008407592773440,30.7508106231689450,50,101,85,62,50,13074,2146956434,2147514715,2147265627,2147460379,2147085357,2146968338,2147663131,2147128137,1701,-2,9,10361
1349538936,5804,274.7399902343750000,18.4797000885009770,36.5998992919921900,229.7716064453125000,139.4821929931640600,18.4747009277343750,30.7780799865722660,51,102,86,62,51,13071,2146955638,2147515136,2147265078,2147459437,2147080704,2146967588,2147670701,2147125330,1082,-1,9,10304
1349539039,5805,264.0799865722656000,18.5436992645263670,36.6043014526367200,228.9369049072265600,137.3262939453125000,18.5398807525634770,30.7905502319335940,51,102,85,61,52,13072,2146957659,2147514934,2147264310,2147459053,2147073526,2146962029,2147659446,2147126811,960,-1,8,54361
1349539145,5807,253.5000000000000000,18.6408996582031250,36.6091003417968750,227.9268035888672000,133.8556976318359400,18.6448402404785160,30.7945003509521500,51,102,85,62,51,13068,2146954733,2147515657,2147261558,2147460214,2147076297,2146966043,2147658084,2147124644,373,-1,8,49341
1349539260,5807,242.6100006103515600,18.7803001403808600,36.6059989929199200,227.9172058105468800,129.3412933349609400,18.7814006805419920,30.7347908020019530,50,102,85,63,51,13071,2146957833,2147514898,2147262171,2147459044,2147082386,2146968630,2147664713,2147126692,67,-1,9,10136
1349539387,5806,231.0899963378906200,18.9412994384765620,36.6018981933593750,229.8849945068359400,124.2996978759765600,18.9339809417724600,30.5704307556152340,50,100,84,62,50,13072,2146955410,2147515492,2147265709,2147456338,2147082194,2146987922,2147717101,2147125238,260,-2,8,53207
1349539505,5804,220.6199951171875000,19.0823001861572270,36.5919990539550800,232.8923034667968800,118.9753036499023400,19.0951900482177730,30.3539600372314450,51,101,85,62,50,13069,2146955876,2147518418,2147267520,2147455122,2147085010,2147006208,2147747026,2147130477,272,-2,9,23945
1349539632,5805,209.6300048828125000,19.2332000732421880,36.5890998840332000,241.4819946289062500,114.6053009033203100,19.2275600433349600,29.8913993835449220,51,102,83,60,51,13070,2146955949,2147516626,2147268150,2147458002,2147077229,2147020800,2147762550,2147132544,3505,-2,8,24904
1349539761,5803,197.9700012207031200,19.2994003295898440,36.5816001892089840,246.0202026367187500,112.2839965820312500,19.2978992462158200,29.6539993286132800,51,104,87,63,50,13067,2146953691,2147514358,2147268004,2147455424,2147092251,2147049874,2147836617,2147134153,2598,-2,9,29509
1349539816,5805,192.8000030517578000,19.3246002197265620,36.5858993530273440,247.0189056396484400,111.4617004394531200,19.3228092193603500,29.5983695983886720,52,101,84,62,51,13062,2146954596,2147519552,2147272658,2147453229,2147093120,2147068041,2147860160,2147137782,2349,-2,9,54742
1349539871,5806,187.4600067138672000,19.3493003845214840,36.5829010009765600,248.2153015136718800,110.9214019775390600,19.3391895294189450,29.5378398895263670,54,104,86,62,50,13062,2146958070,2147518701,2147269961,2147453202,2147088786,2147081243,2147874340,2147138285,1916,-1,9,11222
1349539926,5809,181.9299926757812500,19.3516006469726560,36.5755996704101560,250.3215026855468800,110.6072998046875000,19.3487091064453120,29.4402198791503900,56,104,84,62,50,13060,2146954752,2147517577,2147271104,2147455378,2147093522,2147102299,2147916781,2147141659,1739,-1,9,61480
1349539981,5805,176.3000030517578000,19.3808002471923830,36.5750999450683600,249.9385070800781200,109.7577972412109400,19.3744602203369140,29.4462108612060550,58,103,85,63,50,13062,2146957558,2147520493,2147272237,2147452324,2147101019,2147154953,2148013988,2147144932,1211,-2,9,28859
1349540036,5807,170.6100006103515600,19.4193000793457030,36.5797004699707000,249.4658966064453000,108.5076980590820300,19.4123497009277340,29.4511909484863280,61,106,85,62,50,13056,2146956150,2147522066,2147278208,2147453805,2147111286,2147203136,2148106395,2147150985,895,-1,9,57384
1349540112,5807,163.0500030517578000,19.4479999542236330,36.5868988037109400,248.7162017822265600,107.0566024780273400,19.4563407897949220,29.4655494689941400,63,107,86,62,51,13048,2146959908,2147525430,2147283830,2147452032,2147123867,2147286025,2148242386,2147158006,988,-2,8,27857
1349540167,5803,158.0700073242187500,19.5660991668701170,36.6039009094238300,245.5641021728515600,103.7315979003906200,19.5571708679199220,29.5639305114746100,66,107,86,64,50,13051,2146960859,2147527972,2147291830,2147451830,2147136365,2147348425,2148354413,2147168905,690,-2,9,44137
1349540222,5805,153.3099975585937500,19.5797996520996100,36.6007003784179700,246.0650024414062500,103.1418991088867200,19.5750598907470700,29.5336303710937500,69,107,86,62,50,13052,2146958820,2147529883,2147292178,2147451702,2147146587,2147425398,2148475017,2147175981,125,-2,9,30047
1349540277,5805,148.7599945068359400,19.5809993743896500,36.5954017639160160,247.9712982177734400,102.0538024902343800,19.6080703735351560,29.4342002868652340,71,105,85,62,50,13051,2146958537,2147529929,2147297490,2147451593,2147163382,2147485558,2148568612,2147181778,3150,-1,9,2764
1349540332,5808,144.3800048828125000,19.7226009368896500,36.6236000061035160,246.9261932373047000,98.6572570800781200,19.7111206054687500,29.4372501373291000,72,111,85,62,51,13046,2146958317,2147534006,2147302546,2147454299,2147184969,2147580352,2148705819,2147194185,2722,-1,9,17272
1349540387,5805,140.1699981689453000,19.7686996459960940,36.6245994567871100,245.9217987060547000,96.7634811401367200,19.7685909271240230,29.4578304290771500,76,110,86,63,50,13044,2146961280,2147534802,2147312502,2147452672,2147208027,2147670107,2148856347,2147204096,2599,-2,9,29385
1349540466,5802,134.6900024414062500,19.7789993286132800,36.6150016784668000,246.0588073730468800,96.5310668945312500,19.7756500244140620,29.4485607147216800,79,114,85,64,50,13038,2146958829,2147531913,2147296548,2147451565,2147193590,2147516928,2148529344,2147181732,2822,-1,9,62015
1349540521,5807,131.4400024414062500,19.7889003753662100,36.6153984069824200,245.9801940917968800,96.2655410766601600,19.7837104797363280,29.4489498138427730,79,113,86,62,50,13038,2146962907,2147540397,2147307849,2147453970,2147233179,2147733595,2148908635,2147208502,2815,-2,9,45349
1349540588,5805,127.4199981689453100,19.8195991516113280,36.6158981323242200,245.6873931884765600,94.8676300048828100,19.8261508941650400,29.4439201354980470,83,115,87,63,50,13035,2146962139,2147531108,2147292818,2147453485,2147212178,2147498240,2148428196,2147182400,2934,-2,9,7921
1349540655,5804,123.5699996948242200,19.8735008239746100,36.6186981201171900,246.8441925048828000,93.4985427856445300,19.8677101135253900,29.3744392395019530,84,114,86,63,51,13032,2146961270,2147533220,2147296813,2147452662,2147233792,2147561508,2148524909,2147184694,3106,-1,9,61646
1349540734,5805,119.5500030517578100,19.9514999389648440,36.6195983886718750,250.6779022216797000,90.8621292114257800,19.9477691650390620,29.1710700988769530,87,115,86,62,50,13026,2146961764,2147536027,2147295561,2147451181,2147252992,2147582884,2148510464,2147188123,3014,-2,9,30282
1349540828,5806,115.5100021362304700,20.0762996673584000,36.6234016418457000,252.8715057373047000,86.9960784912109400,20.0652198791503900,29.0257606506347660,98,115,86,63,50,13019,2146970048,2147561097,2147351616,2147457435,2147482605,2148427629,2149812937,2147285403,3269,-1,9,43629
1349540931,5808,112.0999984741211000,20.1256999969482420,36.6301002502441400,254.3636016845703000,85.2077331542968800,20.1195697784423830,28.9385604858398440,102,114,87,63,51,13021,2146971291,2147560612,2147349778,2147455378,2147522340,2148449453,2149764598,2147282304,3594,-2,9,29963
1349541070,5809,108.4100036621093800,20.3341999053955080,36.6407012939453100,255.4942016601562500,78.7954635620117200,20.3145294189453120,28.8086891174316400,114,120,88,62,50,13008,2146983652,2147600237,2147429696,2147457325,2147843986,2149373110,2151122148,2147388608,103,-2,9,6709
1349541182,5806,104.8399963378906200,20.5172004699707030,36.6514015197753900,257.4786987304687500,72.2355728149414000,20.5141391754150400,28.6413192749023440,123,120,86,62,50,12993,2146997906,2147618194,2147463561,2147457737,2148094235,2149894765,2151784612,2147449920,119,-1,9,43069
1349541285,5806,100.6900024414062500,20.6707992553710940,36.6589012145996100,257.5809936523437500,67.6137237548828100,20.6548805236816400,28.5787696838378900,130,121,88,63,51,12982,2147007917,2147636873,2147495981,2147458678,2148315757,2150252068,2152153398,2147490971,545,-1,9,35520
1349541340,5807,98.4700012207031200,20.7077007293701170,36.6609001159668000,258.6505126953125000,65.7476730346679700,20.7117290496826170,28.5102500915527340,129,123,87,64,50,12979,2147019072,2147660726,2147531154,2147459776,2148616713,2150910409,2152980928,2147570340,824,-2,9,16319
1349541395,5805,96.1399993896484400,20.8213005065917970,36.6627998352050800,257.3778991699219000,62.1613311767578100,20.8210201263427730,28.5189094543457030,143,124,86,64,50,12965,2147026925,2147667501,2147541376,2147461174,2148732489,2151016420,2153001014,2147578605,656,-2,9,63095
1349541474,5808,92.4899978637695300,20.9922008514404300,36.6694984436035160,256.9762878417969000,56.7504386901855500,20.9860191345214840,28.4677791595459000,135,123,88,64,50,12953,2147054217,2147728009,2147631140,2147463734,2149428114,2152402569,2154672859,2147743753,804,-1,9,8274
1349541529,5804,89.4899978637695300,21.1105995178222660,36.6698989868164060,256.8865051269531000,52.7928314208984400,21.1067905426025400,28.4221000671386720,124,122,86,64,50,12954,2147084205,2147782582,2147731456,2147470555,2150112795,2153702436,2156114861,2147896640,589,-2,9,887
1349541584,5804,86.5000000000000000,21.3449001312255860,36.6722984313964840,257.5917968750000000,45.5915184020996100,21.3267097473144530,28.3022804260253900,108,119,87,63,50,12966,2147124416,2147842368,2147776530,2147475382,2150958070,2155214390,2157756516,2148071488,1048,-1,9,3067
1349541639,5804,83.9400024414062500,21.4046001434326170,36.6764984130859400,258.9367065429687500,43.5426406860351560,21.3893203735351560,28.2204608917236330,103,118,88,63,50,12960,2147156013,2147891035,2147794249,2147474697,2151819483,2156692635,2159162596,2148221677,1591,-1,9,44877
1349541694,5806,81.6399993896484400,21.6009006500244140,36.6890983581543000,259.6430969238281000,37.1860389709472660,21.5837097167968750,28.1118793487548830,98,118,88,63,50,12961,2147172800,2147897033,2147768192,2147473654,2152181266,2156984960,2159053988,2148232045,1642,-1,9,41018
1349541749,5802,79.7799987792968800,21.8500003814697270,36.6963005065918000,258.4888916015625000,29.2073898315429700,21.8279705047607420,28.0608005523681640,94,122,86,63,50,12958,2147220534,2147971254,2147846454,2147478765,2153392356,2159016384,2161005705,2148451675,1613,-2,9,1235
1349541807,5809,78.2600021362304700,21.9843006134033200,36.6688995361328100,260.4928894042969000,24.7933502197265620,21.9632396697998050,27.9231891632080080,90,121,87,63,50,12961,2147182610,2147894491,2147719414,2147468315,2152329737,2156455853,2157579556,2148121316,1826,-2,9,48125
1349541886,5804,76.3799972534179700,22.1361999511718750,36.6674003601074200,262.4151000976562500,19.9902400970459000,22.1105499267578120,27.7851009368896500,87,121,88,63,50,12960,2147137627,2147815140,2147611145,2147460132,2151348699,2154489426,2155333824,2147887442,1987,-2,9,11394
1349541977,5805,74.4599990844726600,22.1532001495361330,36.6699981689453100,263.3854980468750000,18.9327106475830080,22.1429996490478500,27.7326793670654300,90,123,89,64,50,12958,2147123611,2147774326,2147571520,2147458221,2150970422,2153516507,2154074944,2147783707,1420,-2,9,64420
1349542128,5802,72.0400009155273400,22.3096008300781250,36.6738014221191400,264.0954895019531000,13.9778604507446290,22.2951107025146500,27.6429405212402340,91,122,90,64,50,12954,2147439021,2148303305,2148265124,2147503414,2158204041,2166810477,2168592082,2149292836,1301,-2,9,55632
1349542195,5805,70.1900024414062500,22.4535999298095700,36.6651000976562500,266.6706848144531000,8.6285324096679690,22.4594898223876950,27.4739303588867200,83,123,89,64,50,12953,2147512292,2148397988,2148342765,2147506084,2159799661,2168934052,2170231387,2149457362,1309,-2,9,14179
1349542274,5805,68.4700012207031200,22.6418991088867200,36.6554985046386700,267.5437927246094000,4.1839060783386230,22.5961799621582030,27.3848800659179700,84,121,88,63,50,12952,2147583524,2148488064,2148412681,2147507520,2161423634,2171358491,2172285430,2149684269,1453,-2,9,61048
1349542437,5808,65.7900009155273400,22.8125991821289060,36.6240005493164060,265.8539123535156000,-2.5987389087677000,22.8050003051757800,27.3692798614501950,77,122,89,65,50,12948,2147566482,2148398363,2148221942,2147496603,2160919707,2169298560,2168777161,2149310208,2733,-1,9,41548
1349542504,5805,64.2699966430664000,22.9393997192382800,36.6057014465332000,265.4061889648437500,-6.0859498977661130,22.9124603271484380,27.3446292877197270,74,126,88,63,49,12947,2147770395,2148687286,2148572452,2147530185,2165294080,2175813595,2174617883,2149933174,3407,-1,9,1355
1349542655,5807,62.4199981689453100,23.0252990722656250,36.6026992797851560,264.7347106933594000,-9.6534128189086910,23.0224704742431640,27.3281307220459000,76,124,91,65,49,12949,2147998610,2148972196,2148928539,2147570752,2170091337,2181695204,2178741696,2150386368,296,-2,9,20362
1349542746,5806,59.2700004577636700,23.2737998962402340,36.5822982788085940,264.1931152343750000,-18.6287193298339840,23.2995891571044920,27.2406101226806640,72,129,88,64,50,12939,2148375725,2149379282,2149145371,2147567305,2179102857,2193704612,2188420224,2151491922,3038,-2,9,56680
1349542801,5804,56.6100006103515600,23.5820999145507800,36.5514984130859400,263.8714904785156000,-26.9536495208740230,23.5570602416992200,27.1523704528808600,71,129,88,62,51,12942,2148556278,2149561755,2149269412,2147574226,2183455771,2198847488,2192112649,2152001161,2845,-2,9,43271
1349542856,5806,54.8300018310546900,23.7082004547119140,36.5455017089843750,263.9491882324219000,-30.9765605926513670,23.6816406250000000,27.1003608703613280,69,131,88,64,50,12945,2148689435,2149728841,2149521252,2147619346,2185854619,2201411867,2194012224,2152320740,3497,-1,9,2978
1349543011,5803,53.5499992370605500,23.7761993408203120,36.5377006530761700,264.8301086425781000,-33.5097999572753900,23.7601509094238280,27.0346202850341800,71,127,90,64,50,12909,2148692525,2149733540,2149382409,2147575113,2186700772,2202614518,2195175762,2152463140,2188,-2,9,25428
1349543146,5805,51.7500000000000000,24.0953998565673830,36.5139999389648440,264.7117919921875000,-41.7439613342285160,24.0156097412109380,26.9397201538085940,70,122,90,64,50,12928,2148979200,2150021659,2149600420,2147589275,2192755693,2209008356,2199491181,2153079561,2056,-1,9,7785
1349543284,5805,49.9000015258789060,24.3493003845214840,36.4976997375488300,263.8377075195312500,-51.2521095275878900,24.3111705780029300,26.8596591949462900,66,123,89,65,50,12932,2149137225,2150132434,2149660644,2147602258,2196341531,2212871753,2201977234,2153490002,2501,-2,9,54013
1349543445,5808,47.7299995422363300,24.5457000732421880,36.4925003051757800,262.0607910156250000,-58.4357185363769500,24.5348892211914060,26.8440208435058600,65,125,88,64,49,12934,2149596708,2150614226,2150050121,2147639707,2207017344,2225087131,2210681161,2154609929,2705,-2,9,28351
1349543749,5807,45.8600006103515600,25.0037994384765620,36.4786987304687500,259.8471069335937500,-73.4624633789062500,25.0040798187255860,26.7518405914306640,63,128,88,65,48,12922,2150374281,2151353837,2150805668,2147791067,2222142793,2239568164,2218946130,2155692662,155,-1,9,59263
1349543834,5807,43.9000015258789060,25.4682998657226560,36.4636001586914060,258.2189941406250000,-86.9199600219726600,25.4257202148437500,26.6555595397949220,63,126,90,65,49,12917,2150771309,2151660928,2150807350,2147719323,2232083501,2249581129,2225033865,2156480914,3265,-2,9,9152
1349544084,5805,41.6100006103515600,25.8586997985839840,36.4412994384765600,254.1692047119140600,-100.4938964843750000,25.8524494171142580,26.6573009490966800,62,125,89,63,49,12919,2151443465,2152303021,2151456329,2147874532,2247462418,2265088420,2235227520,2158098240,123,-2,9,22886
1349544169,5801,39.7999992370605500,26.2695999145507800,36.3755989074707000,252.1381988525390600,-110.1343002319336000,26.1564407348632800,26.6249198913574220,64,122,91,65,50,12921,2151641645,2152469915,2151287405,2147739392,2253287396,2270944118,2239537590,2158889444,2374,-1,9,55623
1349544342,5805,37.7700004577636700,26.6884994506835940,36.2934989929199200,246.7881011962890600,-125.9504013061523400,26.6568908691406250,26.6577491760253900,62,125,89,65,50,12918,2152197284,2153027876,2151944219,2147891648,2264295003,2281809298,2247835776,2160474934,1337,-3,9,2561
1349544749,5806,35.9900016784668000,26.8728008270263670,36.2626991271972660,240.6210021972656200,-133.3852996826172000,26.8928909301757800,26.8317108154296880,62,121,88,63,45,12931,2152666852,2153538377,2152951789,2148466249,2270305280,2287682258,2251445248,2161466221,812,-2,9,3924
1349544949,5805,34.7799987792968750,26.9526996612548830,36.2449989318847660,239.4315032958984400,-135.9934997558593800,26.9758090972900400,26.8519306182861330,60,118,88,62,48,12942,2152827410,2153541046,2152595584,2148265609,2275109595,2290986139,2251789586,2161521033,458,-2,9,38745
1349545138,5805,32.9000015258789060,27.0181007385253900,36.2192993164062500,237.6569061279297000,-138.1696929931640600,27.0450305938720700,26.9030799865722660,58,120,85,64,49,12947,2153700681,2154149613,2152334957,2147862774,2296515584,2310831149,2263564681,2163126262,2561,-2,9,11654
1349545246,5807,30.5799999237060550,27.0706005096435550,36.2224006652832000,237.1334991455078000,-139.5623016357422000,27.0893592834472660,26.9092407226562500,58,115,86,63,50,12945,2154779602,2155112914,2153018349,2147970011,2322110473,2334065956,2277945618,2166363282,1901,-2,9,3465
1349545292,5806,28.8400001525878900,27.1145992279052730,36.2296981811523440,236.8854064941406200,-140.6501007080078000,27.1239891052246100,26.9069309234619140,57,116,87,64,50,12949,2155460754,2155674633,2153405385,2148031780,2338640676,2349009307,2287243904,2168417307,1846,-2,9,14885